BREEZE-M DEB, 37205

Orbit data source: Space-Track

BREEZE-M DEB, 37205 is space debris in HEO originally from a launch on Fri, 14 Mar 2008 UTC launched from the Tyuratam Missile And Space Complex (TTMTR). Debris objects in space refer to the collection of defunct objects orbiting the Earth. Examples of debris include non-operational satellites, rocket bodies, and fragments generated from explosions, collisions, or faulty payload assembly.

Loading next visibility...
Identifier
37205, 2008-011K
Orbit
HEO
Country
Flag of CISCIS
Related business
Manufacturer
Unknown
Mission
Spacecraft
Bus & Motor
Unknown
Mass
Unknown
Launch date (UTC)
2008-03-14 (18 years ago)
Launch vehicle
Unknown
Launch site
Tyuratam Missile And Space Complex (TTMTR)
Object type
Payload
Rocket body
Debris
Shape & HBR
Unknown shape, 0.3 m
Radar Cross Section
Medium (>0.1 m² and <1 m²)

Expand to show TLE details & history
Last TLE update: 1 week ago

TLE from 1 week ago
0 BREEZE-M DEB
1 37205U 08011K   26163.23305155 -.00000085  00000-0  00000-0 0  9993
2 37205  49.1960  52.9106 6369494 183.7797 166.9614  3.05955290 21266
Epoch: 2026-06-12T05:35Z
TLE epoch observation values (Epoch: 2026-06-12T05:35:35.653Z)
Latitude
0.00004°
Longitude
68.45554°
Altitude
26,313.876 km
Speed
2.121 km/s
True Right ascension
03h 31m 40s
True Declination
0° 00' 00"
Sunlit
Object was in daylight at epoch
Visualization orbit readout
Latitude
Unknown
Longitude
Unknown
Altitude
Unknown
Speed
Unknown
Apparent Right ascension
Unknown
Apparent Declination
Unknown
Sunlit
N/A
Visualization observer readout
Local Sidereal Time
23:07:49
Azimuth
Unknown
Elevation
Unknown
Doppler factor
Unknown
Orbital elements
Apogee altitude
26,432.399 km
Perigee altitude
898.743 km
Semi-major axis
20,043.708 km
Eccentricity
0.63695
Inclination
49.196°
RAAN
52.9106°
Arg. of periapsis
183.7797°
True anomaly
176.23943°
Mean anomaly
166.9614°
Eccentric anomaly
172.02481°
Mean motion
0.76485 °/min
Orbital period
470.68 mins
BSTAR
0
Loading maneuver chart data...
Computing Atmospheric mass density...
Loading historical data...
Loading historical data...
Loading historical data...
Loading historical data...
Loading historical data...
Loading historical data...
Loading historical data...

Documentation

Showing up to 5 results
|